Location: Unspecified
(41.5516°N, 88.1098°W)
Time: 09:02:33
(UTC-05:00)

Cosmos 1674 - Visible Passes

Search period start: 29 July 2016 00:00
Search period end: 08 August 2016 00:00
Orbit: 501 x 525 km, 82.5° (Epoch: 28 July)

Date Brightness Start Highest point End Pass type
(mag) Time Alt. Az. Time Alt. Az. Time Alt. Az.
29 Jul 5.9 03:12:47 10° ENE 03:13:31 10° ENE 03:14:16 10° E visible
29 Jul 2.8 04:45:51 10° NNW 04:49:32 50° W 04:53:08 10° S visible
30 Jul 2.6 04:29:57 10° NNW 04:33:41 65° W 04:37:23 10° S visible
31 Jul 2.5 04:14:04 10° N 04:17:51 84° W 04:21:25 11° S visible
01 Aug 2.7 03:58:13 10° N 04:02:00 76° E 04:04:48 17° SSE visible
02 Aug 3.1 03:42:23 10° N 03:46:08 59° E 03:48:15 23° SSE visible
03 Aug 3.6 03:26:36 10° N 03:30:15 46° E 03:31:48 28° SE visible
03 Aug 4.8 05:04:35 10° WNW 05:05:24 11° W 05:06:14 10° W visible
04 Aug 4.0 03:10:52 10° N 03:14:21 36° ENE 03:15:24 30° ESE visible
04 Aug 4.6 04:47:48 10° WNW 04:49:38 13° W 04:50:18 13° W visible
05 Aug 4.3 02:55:08 10° NNE 02:58:28 29° ENE 02:59:04 27° E visible
05 Aug 4.4 04:31:26 10° NW 04:33:51 16° W 04:33:58 16° W visible
06 Aug 4.6 02:39:28 10° NNE 02:42:33 23° ENE 02:42:47 23° E visible
06 Aug 4.2 04:15:15 10° NW 04:17:42 20° W 04:17:42 20° W visible
07 Aug 5.0 02:23:52 10° NNE 02:26:32 19° ENE 02:26:32 19° ENE visible
07 Aug 4.1 03:59:08 10° NW 04:01:27 23° WNW 04:01:27 23° WNW visible
